TimeCST,TemperatureF,Dew PointF,Humidity,Sea Level PressureIn,VisibilityMPH,Wind Direction,Wind SpeedMPH,Gust SpeedMPH,PrecipitationIn,Events,Conditions,WindDirDegrees,DateUTC
12:15 AM,28.4,21.2,74,30.25,10.0,Calm,Calm,-,N/A,,Clear,0,2013-11-08 06:15:00
12:35 AM,28.4,21.2,74,30.24,10.0,Calm,Calm,-,N/A,,Clear,0,2013-11-08 06:35:00
12:55 AM,32.0,21.2,64,30.23,10.0,SSW,4.6,-,N/A,,Clear,200,2013-11-08 06:55:00
1:15 AM,30.2,21.2,69,30.23,10.0,SSW,3.5,-,N/A,,Clear,210,2013-11-08 07:15:00
1:35 AM,30.2,21.2,69,30.22,10.0,SSW,3.5,-,N/A,,Clear,210,2013-11-08 07:35:00
1:55 AM,30.2,21.2,69,30.22,10.0,Calm,Calm,-,N/A,,Clear,0,2013-11-08 07:55:00
2:15 AM,32.0,21.2,64,30.21,10.0,South,4.6,-,N/A,,Clear,190,2013-11-08 08:15:00
2:35 AM,32.0,23.0,69,30.20,10.0,SSE,4.6,-,N/A,,Clear,160,2013-11-08 08:35:00
2:55 AM,32.0,23.0,69,30.19,10.0,Calm,Calm,-,N/A,,Clear,0,2013-11-08 08:55:00
3:15 AM,32.0,23.0,69,30.18,10.0,South,3.5,-,N/A,,Clear,180,2013-11-08 09:15:00
3:35 AM,33.8,23.0,65,30.17,10.0,SSE,3.5,-,N/A,,Clear,150,2013-11-08 09:35:00
3:55 AM,33.8,23.0,65,30.17,10.0,South,5.8,-,N/A,,Clear,170,2013-11-08 09:55:00
4:15 AM,33.8,23.0,65,30.15,10.0,South,10.4,-,N/A,,Clear,170,2013-11-08 10:15:00
4:35 AM,35.6,23.0,60,30.14,10.0,South,13.8,21.9,N/A,,Clear,170,2013-11-08 10:35:00
4:55 AM,35.6,23.0,60,30.14,10.0,Variable,6.9,16.1,N/A,,Clear,0,2013-11-08 10:55:00
5:15 AM,35.6,23.0,60,30.13,10.0,South,8.1,15.0,N/A,,Partly Cloudy,180,2013-11-08 11:15:00
5:35 AM,35.6,23.0,60,30.11,10.0,SSE,12.7,18.4,N/A,,Scattered Clouds,160,2013-11-08 11:35:00
5:55 AM,35.6,24.8,65,30.10,10.0,SSE,13.8,20.7,N/A,,Partly Cloudy,160,2013-11-08 11:55:00
6:15 AM,37.4,23.0,56,30.08,10.0,SSE,15.0,23.0,N/A,,Partly Cloudy,160,2013-11-08 12:15:00
6:35 AM,37.4,24.8,60,30.07,10.0,SSE,15.0,20.7,N/A,,Clear,160,2013-11-08 12:35:00
6:55 AM,35.6,24.8,65,30.07,10.0,SSE,12.7,19.6,N/A,,Clear,160,2013-11-08 12:55:00
7:15 AM,37.4,24.8,60,30.06,10.0,South,15.0,23.0,N/A,,Clear,170,2013-11-08 13:15:00
7:35 AM,37.4,24.8,60,30.03,10.0,SSE,18.4,27.6,N/A,,Clear,160,2013-11-08 13:35:00
7:55 AM,37.4,24.8,60,30.02,10.0,SSE,21.9,-,N/A,,Clear,150,2013-11-08 13:55:00
8:15 AM,37.4,24.8,60,30.00,10.0,SSE,21.9,28.8,N/A,,Clear,160,2013-11-08 14:15:00
8:35 AM,39.2,26.6,61,29.98,10.0,SSE,20.7,31.1,N/A,,Clear,160,2013-11-08 14:35:00
8:55 AM,41.0,26.6,57,29.97,10.0,SSE,23.0,33.4,N/A,,Clear,160,2013-11-08 14:55:00
9:15 AM,41.0,26.6,57,29.96,10.0,SSE,24.2,33.4,N/A,,Clear,160,2013-11-08 15:15:00
9:35 AM,42.8,28.4,57,29.93,10.0,SSE,23.0,34.5,N/A,,Clear,160,2013-11-08 15:35:00
9:55 AM,44.6,28.4,53,29.92,10.0,SSE,25.3,35.7,N/A,,Clear,160,2013-11-08 15:55:00
10:15 AM,44.6,30.2,57,29.90,10.0,SSE,23.0,35.7,N/A,,Clear,160,2013-11-08 16:15:00
10:35 AM,46.4,30.2,53,29.89,10.0,South,25.3,-,N/A,,Clear,170,2013-11-08 16:35:00
10:55 AM,50.0,30.2,47,29.86,10.0,South,26.5,35.7,N/A,,Clear,170,2013-11-08 16:55:00
11:15 AM,51.8,32.0,47,29.84,10.0,South,29.9,39.1,N/A,,Clear,170,2013-11-08 17:15:00
11:35 AM,53.6,32.0,44,29.82,10.0,South,25.3,36.8,N/A,,Clear,170,2013-11-08 17:35:00
11:55 AM,55.4,32.0,41,29.81,10.0,South,23.0,35.7,N/A,,Clear,180,2013-11-08 17:55:00
12:15 PM,57.2,32.0,38,29.79,10.0,South,29.9,40.3,N/A,,Clear,190,2013-11-08 18:15:00
12:35 PM,57.2,30.2,36,29.77,10.0,South,29.9,42.6,N/A,,Clear,190,2013-11-08 18:35:00
12:55 PM,57.2,32.0,38,29.74,10.0,South,27.6,43.7,N/A,,Clear,190,2013-11-08 18:55:00
1:15 PM,59.0,32.0,36,29.72,10.0,South,32.2,42.6,N/A,,Clear,190,2013-11-08 19:15:00
1:35 PM,59.0,32.0,36,29.73,10.0,SSW,32.2,41.4,N/A,,Clear,200,2013-11-08 19:35:00
1:55 PM,59.0,32.0,36,29.72,10.0,SSW,28.8,44.9,N/A,,Clear,210,2013-11-08 19:55:00
2:15 PM,59.0,30.2,34,29.71,10.0,SSW,25.3,33.4,N/A,,Clear,200,2013-11-08 20:15:00
2:35 PM,60.8,32.0,34,29.71,10.0,SSW,21.9,36.8,N/A,,Clear,210,2013-11-08 20:35:00
2:55 PM,59.0,32.0,36,29.72,10.0,SSW,16.1,31.1,N/A,,Clear,210,2013-11-08 20:55:00
3:15 PM,60.8,32.0,34,29.71,10.0,SSW,17.3,27.6,N/A,,Clear,210,2013-11-08 21:15:00
3:35 PM,60.8,32.0,34,29.70,10.0,SSW,19.6,29.9,N/A,,Clear,210,2013-11-08 21:35:00
3:55 PM,59.0,32.0,36,29.72,10.0,SW,17.3,31.1,N/A,,Clear,220,2013-11-08 21:55:00
4:15 PM,59.0,32.0,36,29.72,10.0,SW,13.8,20.7,N/A,,Clear,220,2013-11-08 22:15:00
4:35 PM,59.0,32.0,36,29.71,10.0,SW,15.0,25.3,N/A,,Clear,220,2013-11-08 22:35:00
4:55 PM,57.2,33.8,41,29.71,10.0,SW,11.5,-,N/A,,Clear,220,2013-11-08 22:55:00
5:15 PM,57.2,33.8,41,29.71,10.0,SSW,13.8,-,N/A,,Partly Cloudy,210,2013-11-08 23:15:00
5:35 PM,57.2,33.8,41,29.72,10.0,SW,13.8,-,N/A,,Mostly Cloudy,220,2013-11-08 23:35:00
5:55 PM,57.2,33.8,41,29.74,10.0,SW,10.4,17.3,N/A,,Scattered Clouds,220,2013-11-08 23:55:00
6:15 PM,55.4,33.8,44,29.74,10.0,SW,9.2,-,N/A,,Mostly Cloudy,220,2013-11-09 00:15:00
6:35 PM,55.4,33.8,44,29.76,10.0,SW,10.4,-,N/A,,Mostly Cloudy,220,2013-11-09 00:35:00
6:55 PM,55.4,33.8,44,29.77,10.0,WSW,9.2,-,N/A,,Partly Cloudy,240,2013-11-09 00:55:00
7:15 PM,55.4,33.8,44,29.78,10.0,WSW,11.5,-,N/A,,Clear,250,2013-11-09 01:15:00
7:35 PM,53.6,35.6,51,29.79,10.0,WSW,9.2,-,N/A,,Clear,250,2013-11-09 01:35:00
7:55 PM,53.6,35.6,51,29.79,10.0,WSW,9.2,-,N/A,,Clear,250,2013-11-09 01:55:00
8:15 PM,53.6,37.4,54,29.79,10.0,West,10.4,-,N/A,,Clear,260,2013-11-09 02:15:00
8:35 PM,53.6,37.4,54,29.80,10.0,West,10.4,-,N/A,,Clear,260,2013-11-09 02:35:00
8:55 PM,51.8,37.4,58,29.81,10.0,West,10.4,-,N/A,,Clear,260,2013-11-09 02:55:00
9:15 PM,50.0,37.4,62,29.82,10.0,WSW,6.9,-,N/A,,Clear,250,2013-11-09 03:15:00
9:35 PM,48.2,37.4,66,29.82,10.0,West,10.4,-,N/A,,Clear,260,2013-11-09 03:35:00
9:55 PM,48.2,37.4,66,29.83,10.0,West,11.5,-,N/A,,Clear,260,2013-11-09 03:55:00
10:15 PM,50.0,37.4,62,29.83,10.0,WSW,12.7,-,N/A,,Clear,250,2013-11-09 04:15:00
10:35 PM,48.2,37.4,66,29.83,10.0,WSW,12.7,18.4,N/A,,Clear,250,2013-11-09 04:35:00
10:55 PM,48.2,37.4,66,29.84,10.0,West,12.7,-,N/A,,Clear,260,2013-11-09 04:55:00
11:15 PM,46.4,35.6,66,29.85,10.0,WSW,11.5,-,N/A,,Clear,250,2013-11-09 05:15:00
11:35 PM,46.4,35.6,66,29.84,10.0,WSW,9.2,-,N/A,,Clear,250,2013-11-09 05:35:00
11:55 PM,46.4,35.6,66,29.85,10.0,WSW,9.2,-,N/A,,Clear,250,2013-11-09 05:55:00